Location: Altmatt
(47.1333°N, 8.7000°E)
Time: 18:04:48
(UTC+00:00)

Nadezhda 3 Rocket - Pass Details

Date: 13 July 2020
Orbit: 956 x 1000 km, 82.9° (Epoch: 13 August)

Event Time Altitude Azimuth Distance (km) Brightness Sun altitude
Rises 21:15:24 0° 350° (N) 3,729 8.4 -14.7°
Reaches altitude 10° 21:17:57 10° 349° (N) 2,772 7.5 -15.0°
Maximum altitude 21:24:19 79° 264° (W) 1,013 4.1 -15.5°
Enters shadow 21:29:03 19° 180° (S) 2,169 5.3 -15.9°
